Miscellaneous Local Product
Issued by NWS Hastings, NE

Home | Current Version | Previous Version | Text Only | Print | Product List | Glossary Off
Versions: 1 2 3 4 5 6 7 8 9 10 11 12 13 14 15 16 17 18 19 20 21 22 23 24 25 26 27 28 29 30 31 32 33 34 35 36 37 38 39 40 41 42 43 44 45 46 47 48 49 50

000
AXUS43 KGID 241602
MISGRI

GID CWA HOURLY WEATHER ROUNDUP
NATIONAL WEATHER SERVICE HASTINGS NE
1100 AM CDT SUN JUL 24 2016

NOTE: "FAIR" INDICATES FEW OR NO CLOUDS BELOW 12,000 FEET WITH NO
SIGNIFICANT WEATHER AND/OR OBSTRUCTIONS TO VISIBILITY.

...SOUTH CENTRAL NEBRASKA...

CITY           SKY/WX    TMP DP  RH WIND       PRES   REMARKS
GRAND ISLAND   CLOUDY    78  63  59 VRB5      30.05F
HASTINGS       PTSUNNY   78  64  61 E12       30.06S
KEARNEY        CLOUDY    77  63  61 E7        30.07R
ORD            CLOUDY    76  63  64 NE5       30.08R
YORK           CLOUDY    77  66  69 CALM      30.05R
AURORA         MOSUNNY   79  62  56 E5        30.05S
LEXINGTON      CLOUDY    78  60  53 NE7       30.12R
HOLDREGE       CLOUDY    77  61  56 E15       30.05S
HEBRON         PTSUNNY   79  66  63 N8        29.99R

...NEBRASKA PANHANDLE...

CITY           SKY/WX    TMP DP  RH WIND       PRES   REMARKS
CHADRON        SUNNY     77  49  37 E12       30.16F
ALLIANCE       SUNNY     74  55  51 E17       30.17R
SCOTTSBLUFF    MOSUNNY   77  54  44 E15       30.16R
SIDNEY         MOSUNNY   74  50  42 SE21G32   30.16S

...WESTERN AND NORTH CENTRAL NEBRASKA...

CITY           SKY/WX    TMP DP  RH WIND       PRES   REMARKS
VALENTINE      CLOUDY    77  49  37 CALM      30.14R
AINSWORTH      CLOUDY    75  57  52 E3        30.14R
ONEILL         MOSUNNY   77  57  50 NE8       30.08R
BROKEN BOW     CLOUDY    77  62  59 CALM      30.13R
IMPERIAL       SUNNY     79  53  40 E14       30.14S
NORTH PLATTE   MOSUNNY   77  57  50 NE9       30.15R
MCCOOK         CLOUDY    84  59  42 E20       30.09R

...EASTERN NEBRASKA...

CITY           SKY/WX    TMP DP  RH WIND       PRES   REMARKS
NORFOLK        CLOUDY    81  62  52 N7        30.04R
SO SIOUX CITY  SUNNY     86  60  41 N15       30.00R
TEKAMAH        MOSUNNY   84  65  52 N9        29.99R
COLUMBUS       MOSUNNY   81  63  54 NE7       30.04S
ALBION         CLOUDY    77  64  62 NE7       30.05S
OMAHA EPPLEY   PTSUNNY   86  65  49 N14       29.97R
OFFUTT AFB     PTSUNNY   84  65  51 NE8       29.98R
MILLARD        PTSUNNY   85  62  46 NE7       29.98R
LINCOLN        PTSUNNY   83  69  62 N6        30.01R
NEBRASKA CITY  CLOUDY    83  73  70 N9        29.96S
BEATRICE       PTSUNNY   84  67  56 NE6       29.97S
FALLS CITY     PTSUNNY   89  79  72 N9G17     29.91S HX 104

...NORTHERN KANSAS...

CITY           SKY/WX    TMP DP  RH WIND       PRES   REMARKS
GOODLAND       SUNNY     82  61  48 E12       30.11R
HILL CITY      LGT RAIN  74  67  78 E14       29.99F
NORTON         SUNNY     79  52  38 NE20      30.02
SMITH CENTER   SUNNY     73  70  88 NE10      29.97S
BELOIT         MOSUNNY   75  72  88 N5        29.96F
HAYS           CLOUDY    82  63  51 E9        30.00R
RUSSELL        CLOUDY    85  68  56 E8        29.97R
CONCORDIA      MOSUNNY   77  72  84 W5        29.97R
SALINA         CLOUDY    86  71  60 S8        29.94S HX  91
TOPEKA         PTSUNNY   90  73  57 NE3       29.92R HX  98



USA.gov is the U.S. government's official web portal to all federal, state and local government web resources and services.